sat.trackr.live / text

‹ back to catalog

STARLINK-36427

NORAD 67333 · 2026-002AE

PAYLOAD ACTIVE UNKNOWN

§ Identity

Operator
Country
US
Launch date
2026-01-04
Launch site
AFETR
Launch vehicle
Mass (kg)
RCS (m²)

Purposes: comms

External: N2YO · Heavens-Above · Gunter

§ Orbital elements

Epoch: 2026-09-18T03:47:11.290848Z

Period
94.27 min
Inclination
43.0019°
Eccentricity
0.0001527
Mean motion
15.27584891 rev/d
Perigee alt
482.0 km
Apogee alt
484.1 km
Semi-major
6,861.2 km
B*
3.6014e-4
RAAN
318.3627°
Arg perigee
260.1100°
Mean anomaly
99.9580°
Rev number
4,057

§ Raw data

STARLINK-364271 67333U 26002AE  26261.15776957  .00009663  00000+0  36014-3 0  99962 67333  43.0019 318.3627 0001527 260.1100  99.9580 15.27584891 40572

JSON: /api/v1/satellites/67333 · /tle

For live sub-satellite position, see the globe view (requires WebGL).

§ Visibility from observer

Set your observer location to see the next 7 days of passes ≥ 10°. The values pass through the URL so the page stays shareable.

No JS? Fill the form by hand. The geolocation button needs JavaScript.